Woodward, OK

8:21 PM CDT on August 20, 2017 (GMT -0500)
West Woodward

Weather History for KWWR - December, 2013

Change the Weather History Date:

Thursday, December 5, 2013

  Actual Average (KGAG) Record (KGAG)
Temperature  
Mean Temperature 20 °F -  
Max Temperature 26 °F 54 °F 74 °F (1989)
Min Temperature 15 °F 27 °F 1 °F (1964)
Degree Days  
Heating Degree Days 44    
Moisture  
Dew Point 5 °F    
Average Humidity 54    
Maximum Humidity 79    
Minimum Humidity 39    
Precipitation  
Precipitation 0.00 in - - ()
Sea Level Pressure  
Sea Level Pressure 30.24 in    
Wind  
Wind Speed 16 mph (North)    
Max Wind Speed 23 mph    
Max Gust Speed 28 mph    
Visibility 10 miles    
Events Snow    
Averages and records for this station are not official NWS values.
T = Trace of Precipitation, MM = Missing Value Source: NWS Daily Summary

Daily Weather History Graph

Daily Weather History Graph

Search for Another Location

Airport or City:

Trip Planner

Search our weather history database for the weather conditions in past years. The results will help you decide how hot, cold, wet, or windy it might be!

Date:

Astronomy

Dec. 05, 2013 Rise Set
Actual Time 7:35 AM CST 5:22 PM CST
Civil Twilight 7:06 AM CST 5:51 PM CST
Nautical Twilight 6:34 AM CST 6:23 PM CST
Astronomical Twilight 6:03 AM CST 6:54 PM CST
Moon 9:58 AM CST (12/5) 8:42 PM CST (12/5)
Length of Visible Light 10h 44m
Length of Day
9h 47m
Waxing Crescent, 11% of the Moon is Illuminated
Dec 5
Waxing Crescent
Dec 9
First Quarter
Dec 17
Full
Dec 25
Last Quarter
Jan 1
New

Hourly Weather History & Observations

Time (CST) Temp. Windchill Dew Point Humidity Pressure Visibility Wind Dir Wind Speed Gust Speed Precip Events Conditions
12:15 AM 26.6 °F 12.7 °F 5.0 °F 40% 30.14 in 10.0 mi NNW 20.7 mph 26.5 mph N/A   Overcast
12:35 AM 24.8 °F 11.9 °F 5.0 °F 43% 30.15 in 10.0 mi NNW 16.1 mph 27.6 mph N/A   Overcast
12:55 AM 24.8 °F 11.1 °F 5.0 °F 43% 30.16 in 10.0 mi NNW 18.4 mph 25.3 mph N/A   Overcast
1:15 AM 24.8 °F 10.7 °F 5.0 °F 43% 30.14 in 10.0 mi NNW 19.6 mph 26.5 mph N/A   Overcast
1:35 AM 24.8 °F 11.9 °F 5.0 °F 43% 30.15 in 10.0 mi NNW 16.1 mph 23.0 mph N/A   Overcast
1:55 AM 23.0 °F 8.0 °F 5.0 °F 46% 30.16 in 10.0 mi NNW 20.7 mph 25.3 mph N/A   Overcast
2:15 AM 23.0 °F 7.2 °F 5.0 °F 46% 30.16 in 10.0 mi NNW 23.0 mph 27.6 mph N/A   Overcast
2:35 AM 21.2 °F 4.9 °F 8.6 °F 58% 30.18 in 10.0 mi North 23.0 mph 27.6 mph N/A   Mostly Cloudy
2:55 AM 21.2 °F 7.3 °F 8.6 °F 58% 30.17 in 10.0 mi North 16.1 mph 24.2 mph N/A   Scattered Clouds
3:15 AM 21.2 °F 7.3 °F 8.6 °F 58% 30.19 in 10.0 mi North 16.1 mph 24.2 mph N/A   Clear
3:35 AM 21.2 °F 6.8 °F 10.4 °F 63% 30.21 in 10.0 mi North 17.3 mph - N/A   Clear
3:55 AM 21.2 °F 6.4 °F 10.4 °F 63% 30.21 in 10.0 mi North 18.4 mph 25.3 mph N/A   Clear
4:15 AM 21.2 °F 6.8 °F 10.4 °F 63% 30.20 in 10.0 mi North 17.3 mph 23.0 mph N/A   Clear
4:35 AM 21.2 °F 6.4 °F 10.4 °F 63% 30.20 in 10.0 mi North 18.4 mph 24.2 mph N/A   Clear
4:55 AM 21.2 °F 7.3 °F 8.6 °F 58% 30.21 in 10.0 mi North 16.1 mph 21.9 mph N/A   Clear
5:15 AM 21.2 °F 7.8 °F 8.6 °F 58% 30.23 in 10.0 mi North 15.0 mph 19.6 mph N/A   Clear
5:35 AM 19.4 °F 4.5 °F 8.6 °F 63% 30.20 in 10.0 mi North 17.3 mph 20.7 mph N/A   Clear
5:55 AM 21.2 °F 8.9 °F 6.8 °F 54% 30.21 in 10.0 mi North 12.7 mph - N/A   Clear
6:15 AM 21.2 °F 7.8 °F 6.8 °F 54% 30.23 in 10.0 mi North 15.0 mph 19.6 mph N/A   Clear
6:35 AM 21.2 °F 9.5 °F 5.0 °F 50% 30.23 in 10.0 mi North 11.5 mph - N/A   Clear
6:55 AM 21.2 °F 10.9 °F 5.0 °F 50% 30.24 in 10.0 mi North 9.2 mph - N/A   Clear
7:15 AM 19.4 °F 7.2 °F 5.0 °F 54% 30.24 in 10.0 mi North 11.5 mph - N/A   Clear
7:35 AM 19.4 °F 5.0 °F 5.0 °F 54% 30.26 in 10.0 mi North 16.1 mph - N/A   Clear
7:55 AM 19.4 °F 4.5 °F 5.0 °F 54% 30.27 in 10.0 mi NNW 17.3 mph - N/A   Clear
8:15 AM 19.4 °F 4.5 °F 5.0 °F 54% 30.26 in 10.0 mi North 17.3 mph 20.7 mph N/A   Clear
8:35 AM 19.4 °F 4.5 °F 3.2 °F 49% 30.27 in 10.0 mi North 17.3 mph 23.0 mph N/A   Clear
8:55 AM 19.4 °F 4.5 °F 5.0 °F 54% 30.28 in 10.0 mi NNW 17.3 mph 21.9 mph N/A   Clear
9:15 AM 19.4 °F 4.5 °F 3.2 °F 49% 30.28 in 10.0 mi North 17.3 mph - N/A   Clear
9:35 AM 19.4 °F 4.5 °F 3.2 °F 49% 30.28 in 10.0 mi NNW 17.3 mph - N/A   Clear
9:55 AM 19.4 °F 4.5 °F 3.2 °F 49% 30.28 in 10.0 mi North 17.3 mph 21.9 mph N/A   Clear
10:15 AM 19.4 °F 4.1 °F 3.2 °F 49% 30.27 in 10.0 mi North 18.4 mph - N/A   Clear
10:35 AM 19.4 °F 4.5 °F 3.2 °F 49% 30.27 in 10.0 mi NNW 17.3 mph 21.9 mph N/A   Clear
10:55 AM 19.4 °F 4.1 °F 3.2 °F 49% 30.27 in 10.0 mi North 18.4 mph 23.0 mph N/A   Clear
11:15 AM 19.4 °F 6.0 °F 1.4 °F 46% 30.28 in 10.0 mi North 13.8 mph 21.9 mph N/A   Clear
11:35 AM 19.4 °F 6.6 °F 1.4 °F 46% 30.28 in 10.0 mi North 12.7 mph - N/A   Clear
11:55 AM 19.4 °F 7.2 °F 1.4 °F 46% 30.27 in 10.0 mi North 11.5 mph - N/A   Clear
12:15 PM 19.4 °F 6.6 °F 1.4 °F 46% 30.27 in 10.0 mi North 12.7 mph 18.4 mph N/A   Clear
12:35 PM 19.4 °F 9.5 °F 1.4 °F 46% 30.27 in 10.0 mi North 8.1 mph - N/A   Clear
12:55 PM 19.4 °F 10.4 °F 1.4 °F 46% 30.26 in 10.0 mi North 6.9 mph - N/A   Scattered Clouds
1:15 PM 21.2 °F 12.6 °F 1.4 °F 42% 30.25 in 10.0 mi North 6.9 mph 10.4 mph N/A   Mostly Cloudy
1:35 PM 21.2 °F 10.9 °F 1.4 °F 42% 30.24 in 10.0 mi NNE 9.2 mph - N/A   Scattered Clouds
1:55 PM 21.2 °F 10.1 °F 1.4 °F 42% 30.23 in 10.0 mi North 10.4 mph - N/A   Scattered Clouds
2:15 PM 21.2 °F 10.9 °F 1.4 °F 42% 30.23 in 10.0 mi North 9.2 mph - N/A   Overcast
2:35 PM 21.2 °F 10.1 °F -0.4 °F 39% 30.22 in 10.0 mi North 10.4 mph - N/A   Overcast
2:55 PM 21.2 °F 9.5 °F 1.4 °F 42% 30.21 in 10.0 mi North 11.5 mph - N/A   Overcast
3:35 PM 21.2 °F 10.1 °F -0.4 °F 39% 30.22 in 10.0 mi North 10.4 mph - N/A   Overcast
3:55 PM 21.2 °F 10.1 °F -0.4 °F 39% 30.23 in 10.0 mi North 10.4 mph - N/A   Overcast
4:15 PM 21.2 °F 9.5 °F -0.4 °F 39% 30.22 in 10.0 mi North 11.5 mph - N/A   Overcast
4:35 PM 21.2 °F 9.5 °F -0.4 °F 39% 30.21 in 10.0 mi North 11.5 mph - N/A   Overcast
4:55 PM 19.4 °F 6.6 °F -0.4 °F 42% 30.22 in 10.0 mi North 12.7 mph - N/A   Overcast
5:15 PM 19.4 °F 6.0 °F 5.0 °F 54% 30.23 in 10.0 mi NNW 13.8 mph - N/A   Overcast
5:35 PM 19.4 °F 6.6 °F 5.0 °F 54% 30.23 in 10.0 mi North 12.7 mph - N/A   Overcast
5:55 PM 19.4 °F 6.0 °F 5.0 °F 54% 30.24 in 10.0 mi North 13.8 mph - N/A   Overcast
6:15 PM 19.4 °F 6.0 °F 5.0 °F 54% 30.25 in 10.0 mi NNW 13.8 mph - N/A   Overcast
6:35 PM 17.6 °F 5.0 °F 6.8 °F 63% 30.26 in 10.0 mi North 11.5 mph - N/A   Overcast
6:55 PM 17.6 °F 5.7 °F 6.8 °F 63% 30.27 in 10.0 mi North 10.4 mph - N/A   Overcast
7:15 PM 17.6 °F 5.0 °F 6.8 °F 63% 30.26 in 10.0 mi NNE 11.5 mph - N/A   Overcast
7:35 PM 17.6 °F 6.4 °F 8.6 °F 68% 30.25 in 10.0 mi North 9.2 mph - N/A   Overcast
7:55 PM 17.6 °F 6.4 °F 8.6 °F 68% 30.26 in 10.0 mi North 9.2 mph - N/A   Overcast
8:15 PM 17.6 °F 6.4 °F 6.8 °F 63% 30.26 in 10.0 mi NNE 9.2 mph - N/A Snow Light Snow
8:35 PM 17.6 °F 7.3 °F 6.8 °F 63% 30.27 in 10.0 mi North 8.1 mph - N/A Snow Light Snow
8:55 PM 17.6 °F 5.7 °F 6.8 °F 63% 30.28 in 10.0 mi North 10.4 mph - N/A   Overcast
9:15 PM 17.6 °F 6.4 °F 10.4 °F 73% 30.27 in 4.0 mi North 9.2 mph - N/A Snow Light Snow
9:35 PM 17.6 °F 6.4 °F 8.6 °F 68% 30.29 in 10.0 mi NNE 9.2 mph - N/A   Overcast
9:55 PM 17.6 °F 6.4 °F 8.6 °F 68% 30.29 in 7.0 mi NNE 9.2 mph - N/A Snow Light Snow
10:15 PM 17.6 °F 5.7 °F 8.6 °F 68% 30.30 in 10.0 mi North 10.4 mph - N/A   Overcast
10:35 PM 17.6 °F 5.7 °F 10.4 °F 73% 30.32 in 10.0 mi North 10.4 mph - N/A   Overcast
10:55 PM 17.6 °F 5.7 °F 10.4 °F 73% 30.32 in 10.0 mi North 10.4 mph - N/A Snow Light Snow
11:15 PM 17.6 °F 5.7 °F 12.2 °F 79% 30.31 in 10.0 mi North 10.4 mph - N/A Snow Light Snow
11:35 PM 15.8 °F 1.4 °F 10.4 °F 79% 30.30 in 10.0 mi NNE 13.8 mph - N/A   Overcast
11:55 PM 15.8 °F 3.4 °F 10.4 °F 79% 30.32 in 10.0 mi North 10.4 mph - N/A   Overcast